SCP
0 0 0 -0 0 0 0 0 0 0 0 0 0 0 0 0 0 0 0 0 0 0 0 0 0 0 0 0 0 0 0 0
0 0 0 0 0 0 0 0 -0 0 -0 0 0 0 0 0 0 0 0 0 0 0 0 0 0 0 0 0 0 0 0 0
0 0 -0 0 0 0 0 -0 0 0 0 0 0 0 0 0 0 0 0 0 0 0 0 0 0 0 0 0 0 0 0 0
-0 -0 -0 -0 -0 -0 0 0 -0 0 0 0 0 0 0 0 0 0 0 0 0 0 0 0 0 0 0 0 0 0 0 0
-0 -0 -0 -0 0 0 0 0 0 0 0 0 0 0 0 0 0 0 0 0 0 0 0 0 0 0 0 0 0 0 0 0
-0 -0 -0 0 0 0 0 0 0 0 0 0 0 0 0 0 0 0 0 0 0 0 0 0 0 0 0 0 0 0 0 0
0 -0 -0 -0 0 0 -0 -0 0 0 0 0 0 0 0 0 0 0 0 0 0 0 0 0 0 0 0 0 0 0 0 0
0 -0 -0 0 -0 -0 -0 0 0 0 0 0 0 0 0 0 0 0 0 0 0 0 0 0 0 0 0 0 0 0 0 0
0 -0 -0 -0 -0 -0 0 0 0 0 0 0 0 0 0 0 0 0 0 0 0 0 0 0 0 0 0 0 0 0 0 0
-0 -0 -0 -0 -0 0 0 0 0 0 0 0 0 0 0 0 0 0 0 0 0 0 0 0 0 0 0 0 0 0 0 0
-0 -0 -0 -0 -0 0 0 0 0 0 0 0 0 0 0 0 0 0 0 0 0 0 0 0 0 0 0 0 0 0 0 0
-0 -0 -0 0 0 0 0 0 0 0 0 0 0 0 0 0 0 0 0 0 0 0 0 0 -0 0 0 0 -0 0 0 0
-0 -0 -0 0 0 0 0 0 0 0 0 0 0 0 0 0 0 0 0 0 0 0 0 0 0 0 0 0 -0 0 0 0
-0 0 -0 0 0 0 0 0 0 0 0 0 0 0 0 0 0 0 0 0 0 0 0 0 0 0 0 0 0 0 0 0
-0 -0 -0 0 0 0 0 0 0 0 0 0 0 0 0 0 0 0 0 0 0 0 0 0 0 0 0 0 0 0 0 0
-0 -0 -0 0 0 0 0 0 0 0 0 0 0 0 0 0 0 0 0 0 0 0 0 0 0 0 0 0 0 0 0 0
-0 0 0 0 0 0 0 0 0 0 0 0 0 0 0 0 0 0 0 0 0 0 0 0 0 0 0 0 0 0 0 0
0 0 0 0 0 0 0 0 0 0 0 0 0 0 0 0 0 0 0 0 0 0 0 0 0 0 0 0 0 0 0 0
0 0 0 0 0 0 0 0 0 0 0 0 0 0 0 0 0 0 0 0 0 0 0 0 0 0 0 0 0 0 0 0
0 0 0 0 0 0 0 0 0 0 0 0 0 0 0 0 0 0 0 0 0 0 0 0 0 0 0 0 0 0 0 0
Wind_Speed_500mb
63 49 45 38 31 28 23 22 23 25 29 30 33 34 33 30 27 24 24 22 22 21 20 19 20 24 17 13 13 17 17 19
63 51 34 38 35 27 25 25 26 27 31 33 35 35 32 27 27 23 23 21 22 20 14 12 10 10 9 7 7 11 16 19
55 57 40 36 33 28 26 26 28 33 36 36 35 33 28 28 28 26 23 25 27 20 15 12 8 9 5 6 11 18 21 25
48 46 42 35 28 22 27 31 35 36 32 31 31 27 23 23 22 19 19 20 19 13 8 7 1 7 10 17 18 18 22 27
48 43 41 35 29 29 32 38 42 36 29 26 23 20 18 11 10 13 11 16 12 7 8 7 6 8 13 19 22 27 26 20
46 40 36 33 33 35 40 41 43 33 29 26 17 13 10 8 9 9 10 8 4 8 9 7 9 12 16 17 20 26 23 21
43 40 32 36 39 40 43 45 40 33 25 22 16 13 10 8 10 11 10 10 12 13 15 17 22 25 25 25 24 25 28 29
48 39 38 43 43 42 40 37 33 29 25 20 15 15 13 13 14 13 12 12 12 15 18 21 24 23 24 25 25 29 32 34
52 49 48 45 36 35 31 31 31 28 22 16 13 12 7 12 16 13 10 8 12 17 20 20 22 23 21 22 24 25 30 35
58 54 50 39 39 39 41 37 32 25 22 18 11 5 12 13 12 8 5 9 14 18 22 25 25 28 30 31 31 30 28 29
62 61 53 46 45 42 38 33 31 26 18 10 8 14 19 15 11 8 7 14 21 24 27 29 34 36 38 36 37 33 20 18
59 58 50 50 41 43 41 35 32 23 18 12 16 19 16 13 6 9 17 22 24 25 28 33 39 41 41 43 45 11 23 25
56 60 56 54 48 43 44 34 37 23 18 21 18 13 12 8 10 17 21 24 24 25 29 35 39 46 51 54 34 25 26 4
59 52 49 50 46 38 35 34 31 20 20 20 20 17 11 7 13 20 26 27 28 28 34 39 43 47 49 47 26 42 5 65
60 52 51 44 43 40 33 32 30 30 28 23 19 16 13 16 26 29 36 40 36 34 38 41 42 43 42 40 25 19 66 55
63 62 49 39 44 41 32 33 33 27 21 20 20 20 21 29 31 35 41 46 41 39 39 37 40 44 45 44 44 48 50 49
62 43 39 45 47 39 27 27 25 27 31 30 26 23 21 23 29 32 34 36 35 37 38 43 48 51 49 45 47 47 49 55
39 38 45 45 42 37 39 36 34 37 41 36 29 25 21 29 29 31 34 35 36 40 46 53 53 51 48 46 49 51 51 49
44 49 44 47 47 48 46 41 40 40 44 41 35 32 29 23 27 39 36 39 42 46 51 51 48 48 48 46 45 47 45 49
52 50 47 50 49 50 45 46 42 39 37 30 22 20 27 43 47 41 46 47 51 50 52 53 51 49 45 39 42 47 44 43
Wind_Direction_500mb
158 143 136 145 151 150 141 136 132 132 125 123 119 117 111 105 102 96 90 90 88 86 86 82 91 87 84 78 48 44 30 17
135 138 160 152 154 150 141 135 136 132 129 128 122 116 109 104 95 93 88 84 80 80 82 88 93 84 62 76 23 17 1 357
135 145 164 163 153 148 142 140 145 145 140 132 117 116 105 101 97 93 86 97 86 76 81 82 62 49 44 351 333 343 338 325
141 147 164 160 152 162 154 152 146 143 138 130 130 128 123 117 116 108 101 107 113 108 127 125 251 291 285 299 304 315 320 321
149 165 169 166 181 171 158 152 144 142 147 147 149 151 139 128 142 140 141 143 146 166 187 197 265 284 297 301 302 304 309 302
163 175 163 166 169 163 156 157 159 158 158 163 162 152 144 155 130 127 149 162 207 205 212 207 247 275 290 290 295 299 298 297
173 165 151 158 161 161 163 166 170 174 169 176 176 194 219 247 235 241 231 222 237 252 268 277 281 293 298 299 295 290 292 293
177 167 160 164 171 172 170 175 173 183 189 192 198 203 212 223 230 231 237 239 257 279 297 302 302 302 304 299 294 292 293 296
182 174 180 182 179 182 180 186 195 195 201 204 192 164 174 213 220 224 239 271 306 308 297 301 309 312 313 312 315 312 307 306
181 186 184 188 187 190 195 196 201 208 210 185 175 163 182 191 192 202 259 292 299 307 318 324 326 332 336 335 331 329 324 322
182 184 187 187 195 200 199 208 210 202 197 227 242 178 176 182 190 221 292 334 339 327 322 332 339 342 342 341 339 335 322 313
186 188 191 194 200 206 209 208 208 217 251 226 192 182 187 205 252 320 344 341 327 324 336 337 337 340 341 340 345 30 333 310
191 193 196 199 202 201 202 220 214 236 219 191 185 204 222 244 319 341 336 331 328 334 334 334 337 337 341 337 347 325 341 5
193 199 201 206 210 212 220 218 226 227 215 204 210 211 224 288 323 321 329 329 326 323 325 330 334 337 335 334 332 328 221 328
203 205 208 208 206 209 207 197 203 190 195 199 211 243 259 299 320 329 323 319 317 316 325 331 330 328 324 327 329 308 317 320
205 204 206 200 200 198 200 203 198 200 199 206 228 241 262 299 308 304 309 312 312 317 320 318 315 315 312 315 310 309 315 312
203 207 216 192 189 196 201 206 205 204 201 213 227 243 260 274 285 296 298 303 304 303 304 305 307 307 308 313 311 308 308 308
206 193 178 188 196 200 207 206 206 203 208 213 217 225 248 265 279 283 288 290 288 290 297 303 304 301 300 301 302 303 307 304
176 178 186 195 196 197 203 211 216 211 206 211 216 237 233 239 275 284 283 289 296 300 301 300 301 300 300 299 294 296 299 302
180 189 199 192 195 196 202 200 194 192 199 209 224 239 283 295 307 284 294 297 298 300 301 303 304 305 306 303 295 297 297 298
Wind_Speed_850mb
63 49 45 38 31 28 23 22 23 25 29 30 33 34 33 30 27 24 24 22 22 21 20 19 20 24 17 13 13 17 17 19
63 51 34 38 35 27 25 25 26 27 31 33 35 35 32 27 27 23 23 21 22 20 14 12 10 10 9 7 7 11 16 19
55 57 40 36 33 28 26 26 28 33 36 36 35 33 28 28 28 26 23 25 27 20 15 12 8 9 5 6 11 18 21 25
48 46 42 35 28 22 27 31 35 36 32 31 31 27 23 23 22 19 19 20 19 13 8 7 1 7 10 17 18 18 22 27
48 43 41 35 29 29 32 38 42 36 29 26 23 20 18 11 10 13 11 16 12 7 8 7 6 8 13 19 22 27 26 20
46 40 36 33 33 35 40 41 43 33 29 26 17 13 10 8 9 9 10 8 4 8 9 7 9 12 16 17 20 26 23 21
43 40 32 36 39 40 43 45 40 33 25 22 16 13 10 8 10 11 10 10 12 13 15 17 22 25 25 25 24 25 28 29
48 39 38 43 43 42 40 37 33 29 25 20 15 15 13 13 14 13 12 12 12 15 18 21 24 23 24 25 25 29 32 34
52 49 48 45 36 35 31 31 31 28 22 16 13 12 7 12 16 13 10 8 12 17 20 20 22 23 21 22 24 25 30 35
58 54 50 39 39 39 41 37 32 25 22 18 11 5 12 13 12 8 5 9 14 18 22 25 25 28 30 31 31 30 28 29
62 61 53 46 45 42 38 33 31 26 18 10 8 14 19 15 11 8 7 14 21 24 27 29 34 36 38 36 37 33 20 18
59 58 50 50 41 43 41 35 32 23 18 12 16 19 16 13 6 9 17 22 24 25 28 33 39 41 41 43 45 11 23 25
56 60 56 54 48 43 44 34 37 23 18 21 18 13 12 8 10 17 21 24 24 25 29 35 39 46 51 54 34 25 26 4
59 52 49 50 46 38 35 34 31 20 20 20 20 17 11 7 13 20 26 27 28 28 34 39 43 47 49 47 26 42 5 65
60 52 51 44 43 40 33 32 30 30 28 23 19 16 13 16 26 29 36 40 36 34 38 41 42 43 42 40 25 19 66 55
63 62 49 39 44 41 32 33 33 27 21 20 20 20 21 29 31 35 41 46 41 39 39 37 40 44 45 44 44 48 50 49
62 43 39 45 47 39 27 27 25 27 31 30 26 23 21 23 29 32 34 36 35 37 38 43 48 51 49 45 47 47 49 55
39 38 45 45 42 37 39 36 34 37 41 36 29 25 21 29 29 31 34 35 36 40 46 53 53 51 48 46 49 51 51 49
44 49 44 47 47 48 46 41 40 40 44 41 35 32 29 23 27 39 36 39 42 46 51 51 48 48 48 46 45 47 45 49
52 50 47 50 49 50 45 46 42 39 37 30 22 20 27 43 47 41 46 47 51 50 52 53 51 49 45 39 42 47 44 43
Wind_Direction_850mb
158 143 136 145 151 150 141 136 132 132 125 123 119 117 111 105 102 96 90 90 88 86 86 82 91 87 84 78 48 44 30 17
135 138 160 152 154 150 141 135 136 132 129 128 122 116 109 104 95 93 88 84 80 80 82 88 93 84 62 76 23 17 1 357
135 145 164 163 153 148 142 140 145 145 140 132 117 116 105 101 97 93 86 97 86 76 81 82 62 49 44 351 333 343 338 325
141 147 164 160 152 162 154 152 146 143 138 130 130 128 123 117 116 108 101 107 113 108 127 125 251 291 285 299 304 315 320 321
149 165 169 166 181 171 158 152 144 142 147 147 149 151 139 128 142 140 141 143 146 166 187 197 265 284 297 301 302 304 309 302
163 175 163 166 169 163 156 157 159 158 158 163 162 152 144 155 130 127 149 162 207 205 212 207 247 275 290 290 295 299 298 297
173 165 151 158 161 161 163 166 170 174 169 176 176 194 219 247 235 241 231 222 237 252 268 277 281 293 298 299 295 290 292 293
177 167 160 164 171 172 170 175 173 183 189 192 198 203 212 223 230 231 237 239 257 279 297 302 302 302 304 299 294 292 293 296
182 174 180 182 179 182 180 186 195 195 201 204 192 164 174 213 220 224 239 271 306 308 297 301 309 312 313 312 315 312 307 306
181 186 184 188 187 190 195 196 201 208 210 185 175 163 182 191 192 202 259 292 299 307 318 324 326 332 336 335 331 329 324 322
182 184 187 187 195 200 199 208 210 202 197 227 242 178 176 182 190 221 292 334 339 327 322 332 339 342 342 341 339 335 322 313
186 188 191 194 200 206 209 208 208 217 251 226 192 182 187 205 252 320 344 341 327 324 336 337 337 340 341 340 345 30 333 310
191 193 196 199 202 201 202 220 214 236 219 191 185 204 222 244 319 341 336 331 328 334 334 334 337 337 341 337 347 325 341 5
193 199 201 206 210 212 220 218 226 227 215 204 210 211 224 288 323 321 329 329 326 323 325 330 334 337 335 334 332 328 221 328
203 205 208 208 206 209 207 197 203 190 195 199 211 243 259 299 320 329 323 319 317 316 325 331 330 328 324 327 329 308 317 320
205 204 206 200 200 198 200 203 198 200 199 206 228 241 262 299 308 304 309 312 312 317 320 318 315 315 312 315 310 309 315 312
203 207 216 192 189 196 201 206 205 204 201 213 227 243 260 274 285 296 298 303 304 303 304 305 307 307 308 313 311 308 308 308
206 193 178 188 196 200 207 206 206 203 208 213 217 225 248 265 279 283 288 290 288 290 297 303 304 301 300 301 302 303 307 304
176 178 186 195 196 197 203 211 216 211 206 211 216 237 233 239 275 284 283 289 296 300 301 300 301 300 300 299 294 296 299 302
180 189 199 192 195 196 202 200 194 192 199 209 224 239 283 295 307 284 294 297 298 300 301 303 304 305 306 303 295 297 297 298